Tracking 35274 objects as of 11-Sep-2026
HD Live streaming from Space Station
objects crossing your sky now

SL-12 DEB

Track SL-12 DEB now!
10-day predictions


NORAD ID: 29331
Int'l Code: 1989-039AN
Launch date: May 31, 1989
Source: Commonwealth of Independent States (former USSR) (CIS)
Launch site: TYURATAM MISSILE AND SPACE COMPLEX (TTMTR)

Note: This is SATELLITE DEBRIS
Your satellite tracking list
Your tracking list is empty




NASA's NSSDC Master Catalog

Two Line Element Set (TLE):
1 29331U 89039AN  06296.87729248 -.00001424  00000-0 -20435-1 0  9995
2 29331  65.4754 242.0285 5458138  65.4406 340.3634  4.38084311  3764
Source of the keplerian elements: AFSPC